Location: *
(33.8649°S, 62.1526°E)
Time: 13:17:06
(UTC+00:00)

Cosmos 1943 Rocket - Pass Details

Date: 17 January 2021
Orbit: 810 x 845 km, 71.0° (Epoch: 02 March)

Event Time Altitude Azimuth Distance (km) Brightness Sun altitude
Rises 15:39:43 0° 196° (SSW) 3,373 6.1 -7.3°
Reaches altitude 10° 15:42:14 10° 191° (S) 2,430 5.2 -7.7°
Maximum altitude 15:47:40 54° 114° (ESE) 994 2.4 -8.7°
Drops below altitude 10° 15:53:02 10° 36° (NE) 2,396 4.0 -9.6°
Enters shadow 15:53:02 10° 36° (NE) 2,400 4.0 -9.6°
